Lexington Weather

Lexington, Massachusetts, USA

26°F
12/12/2019 5:35pm 
  • Lexington Conditions: Partly cloudy
  • Temperature: 25.5°F / -3.6°CColder 1.8°F than last hour.
  • Dew Point: 20.3°FIncreased 0.5°Fsince last hour.
  • Relative Humidity: 80%Increased 7.0% since last hour.
  • Wind: Calm, 10-min avg: Calm, gust: 1 mph
  • Barometer: 30.66 in Steady
  • Visibility: 10 miles
  • Snow Today: 0.0 in
  •   

Regional Weather Roundup
for Boston / Norton, MA

        
000
ASUS41 KBOX 120300
RWRBOX

REGIONAL WEATHER ROUNDUP
NATIONAL WEATHER SERVICE BOSTON/NORTON MA
1000 PM EST WED DEC 11 2019

NOTE:  "FAIR" INDICATES FEW OR NO CLOUDS BELOW 12,000 FEET WITH NO 
SIGNIFICANT WEATHER AND/OR OBSTRUCTIONS TO VISIBILITY.

MAZALL-120400-
EASTERN MASSACHUSETTS
  
CITY           SKY/WX    TMP DP  RH WIND       PRES   REMARKS
BOSTON         FAIR      32  22  66 SW13      30.30R WCI  22          
BEVERLY        FAIR      27  21  78 SW6       30.29R WCI  20          
LAWRENCE       FAIR      25  21  85 S5        30.31R WCI  19          
BEDFORD        FAIR      25  21  85 SW3       30.28R                  
BLUE HILL        N/A     24  21  88 W15       30.26R WCI  11          
NORWOOD        FAIR      28  21  75 SW5       30.31R WCI  23          
MARSHFIELD     NOT AVBL                                               
PLYMOUTH       FAIR      22  21  96 SW3       30.31R                  
TAUNTON        FAIR      22  18  85 CALM      30.31R                  
NEW BEDFORD    FAIR      25  22  88 W6        30.31R WCI  18          
$$

MAZALL-120400-
CAPE COD AND THE ISLANDS
  
CITY           SKY/WX    TMP DP  RH WIND       PRES   REMARKS
FALMOUTH       CLEAR     27  23  86 NW6       30.31S WCI  20          
HYANNIS        NOT AVBL                                               
CHATHAM        FAIR      26  23  88 CALM      30.32R                  
PROVINCETOWN   FAIR      31  26  82 W12       30.31S WCI  22          
NANTUCKET      FAIR      32  25  75 W7        30.32S WCI  26          
MARTHAS VNYRD  FAIR      35  24  64 W12G21    30.32R WCI  27          
$$
 
MAZALL-120400-
CENTRAL AND WESTERN MASSACHUSETTS
  
CITY           SKY/WX    TMP DP  RH WIND       PRES   REMARKS
WORCESTER      FAIR      24  21  88 W12       30.25R WCI  13          
FITCHBURG      FAIR      20  17  88 W3        30.30R                  
ORANGE         FAIR      22  17  81 CALM      30.30R                  
SPRINGFIELD    PTCLDY    22  21  94 CALM      30.31R                  
WESTFIELD      FAIR      22  20  92 CALM      30.32R                  
NORTH ADAMS    CLOUDY    27  10  49 W16G30    30.32R WCI  15          
PITTSFIELD     MOCLDY    25  14  63 NW23G31   30.29R WCI  10          
$$
 
RIZALL-120400-
RHODE ISLAND
  
CITY           SKY/WX    TMP DP  RH WIND       PRES   REMARKS
PROVIDENCE     FAIR      27  23  85 W5        30.32R WCI  22          
NEWPORT        FAIR      32  24  72 W8G17     30.31R WCI  25          
BLOCK ISLAND   FAIR      33  19  56 W17G26    30.33R WCI  22          
SMITHFIELD     FAIR      24  23  96 W7        30.30R WCI  16          
WESTERLY       FAIR      34  22  61 W5        30.34R WCI  30          
$$
 
CTZALL-120400-
CONNECTICUT
  
CITY           SKY/WX    TMP DP  RH WIND       PRES   REMARKS
BRADLEY INTL   FAIR      28  19  69 W8        30.32R WCI  20          
HARTFORD       FAIR      32  20  61 W10       30.35R WCI  24          
BRIDGEPORT     FAIR      33  19  56 W12G23    30.37R WCI  24          
DANBURY        FAIR      26  17  68 W8        30.36R WCI  18          
GROTON         NOT AVBL                                               
NEW HAVEN      FAIR      35  22  58 W10       30.36R WCI  27          
CHESTER        FAIR      30  21  69 W9        30.32R WCI  22          
MERIDEN        FAIR      31  18  58 W8        30.35R WCI  23          
WILLIMANTIC    FAIR      26  23  88 W5        30.33R WCI  20          
OXFORD         FAIR      26  20  77 W9        30.33R WCI  17          
$$

MEZ002-015-021-024-NHZ003-005-008-011-012-014-VTZ005-008-120400-
NORTHERN NEW ENGLAND
  
CITY           SKY/WX    TMP DP  RH WIND       PRES   REMARKS
PORTLAND ME    FAIR      26  17  68 SW5       30.24R WCI  20          
BANGOR ME      FAIR      20  14  77 S6        30.19F WCI  12          
CONCORD NH     FAIR      25  16  68 SW5       30.26R WCI  19          
MANCHESTER NH  FAIR      25  19  78 S7        30.26R WCI  17          
NASHUA NH      FAIR      19  19 100 W5        30.29R WCI  12          
PORTSMOUTH NH  CLEAR     25  20  80 SW6       30.25R WCI  18          
JAFFREY NH     FAIR      24  19  81 SW5       30.24R WCI  18          
KEENE NH       MOCLDY    29  14  53 W13G18    30.30R WCI  19          
BURLINGTON VT  FLURRIES  26  12  55 NW20G32   30.30R WCI  12          
MT. WASHINGTON SNOW       1   1 100 W68G86      N/A  VSB 0   WCI -32  
$$

NYZ052-076-120400-
EASTERN NEW YORK
  
CITY           SKY/WX    TMP DP  RH WIND       PRES   REMARKS
ALBANY         FAIR      28  11  48 NW14      30.39R WCI  17          
NEW YORK CITY  FAIR      34  13  41 W21G28    30.42R WCI  22          
$$
 
ANZALL-120400-
MARINE OBSERVATIONS
  
STATION/POSITION TIME  TEMP    WIND        PRES    VSBY  WAVE
                       AIR SEA DIR/SP/G                  HT/PER
                 (UTC) (F)     (DEG/KT/KT) (MB)    (MI)  (FT/S)
BOSTON BUOY      0150   34 47  230/ 16/ 17 1024.8          3/10
BUZZARDS BAY     0200   37     270/ 25/ 29 1026.4F
NANTUCKET SOUND  0240      43              1026.7R
MASS BAY-STELLWA 0204   35 46  280/ 17/ 21 1023.4R  1 7/8  3/ 4
ISLE OF SHOALS   0200   33     250/ 17/ 18 1024.1R
S OF BLOCK IS    0230      53                N/A           6/ 5
$$

......................KEY.........................
  SKY/WX - SKY CONDITION/PRESENT WEATHER
  TMP    - TEMPERATURE IN FAHRENHEIT
  DWPT   - DEWPOINT IN FAHRENHEIT
  RH     - RELATIVE HUMIDITY IN PERCENT
  WIND   - DIRECTION AND SPEED IN MPH
  PRES   - MEAN SEA LEVEL PRESSURE IN INCHES OF HG
  WCI    - WIND CHILL INDEX
  VSB    - VISIBILITY IN MILES
  HX     - HEAT INDEX
  TC     - TEMPERATURE IN CELSIUS
  VRB    - VARIABLE WIND DIRECTION
  N/A    - NOT AVAILABLE
  
      

Other recent Regional Weather Roundups

Thu Dec 12, 5:10pm

Thu Dec 12, 5:00pm

Thu Dec 12, 4:10pm

Thu Dec 12, 4:01pm

Thu Dec 12, 3:10pm

Thu Dec 12, 3:00pm

Thu Dec 12, 2:10pm

Thu Dec 12, 2:01pm

Thu Dec 12, 1:10pm

Thu Dec 12, 1:00pm

Thu Dec 12, 12:10pm

Thu Dec 12, 12:00pm

Thu Dec 12, 11:10am

Thu Dec 12, 11:00am

Thu Dec 12, 10:10am

Thu Dec 12, 8:10am

Thu Dec 12, 8:00am

Thu Dec 12, 7:10am

Thu Dec 12, 7:00am

Thu Dec 12, 6:10am

Thu Dec 12, 6:00am

Thu Dec 12, 5:10am

Thu Dec 12, 5:00am

Thu Dec 12, 4:10am

Thu Dec 12, 4:00am

Thu Dec 12, 3:10am

Thu Dec 12, 3:00am

Thu Dec 12, 2:10am

Thu Dec 12, 2:00am

Thu Dec 12, 1:10am

Thu Dec 12, 1:00am

Thu Dec 12, 12:10am

Thu Dec 12, 12:00am

Wed Dec 11, 11:10pm

Wed Dec 11, 11:00pm

Wed Dec 11, 10:10pm

Wed Dec 11, 9:10pm

Wed Dec 11, 9:00pm

Wed Dec 11, 8:10pm

Wed Dec 11, 8:00pm

Wed Dec 11, 7:10pm

Wed Dec 11, 7:00pm

Wed Dec 11, 6:10pm

Wed Dec 11, 6:00pm

Wed Dec 11, 5:10pm

Wed Dec 11, 5:01pm

Wed Dec 11, 4:10pm

Wed Dec 11, 4:00pm

Wed Dec 11, 3:10pm

Wed Dec 11, 3:01pm

Wed Dec 11, 2:10pm

Wed Dec 11, 2:00pm

Wed Dec 11, 1:10pm

Wed Dec 11, 1:00pm

Wed Dec 11, 12:10pm

Wed Dec 11, 12:00pm

Wed Dec 11, 11:10am

Wed Dec 11, 11:00am

Wed Dec 11, 10:10am

Wed Dec 11, 10:00am

Wed Dec 11, 9:10am

Wed Dec 11, 9:00am

Wed Dec 11, 8:10am

Wed Dec 11, 8:00am

Wed Dec 11, 7:10am

Wed Dec 11, 7:00am

Wed Dec 11, 6:10am

Wed Dec 11, 6:00am

Wed Dec 11, 5:10am

Wed Dec 11, 5:00am

Wed Dec 11, 4:10am

Wed Dec 11, 4:00am

Wed Dec 11, 3:10am

Wed Dec 11, 3:01am

Wed Dec 11, 2:10am

Wed Dec 11, 2:01am

Wed Dec 11, 1:10am

Wed Dec 11, 1:00am

Wed Dec 11, 12:10am

Wed Dec 11, 12:00am

Tue Dec 10, 11:10pm

Tue Dec 10, 11:00pm

Tue Dec 10, 10:10pm

Tue Dec 10, 10:00pm

Tue Dec 10, 9:10pm

Tue Dec 10, 9:01pm

Tue Dec 10, 8:10pm

Tue Dec 10, 8:00pm

Tue Dec 10, 7:10pm

Tue Dec 10, 7:01pm

Tue Dec 10, 6:10pm

Tue Dec 10, 6:01pm

Tue Dec 10, 5:10pm

Tue Dec 10, 5:00pm

Tue Dec 10, 4:10pm

Tue Dec 10, 4:01pm

Tue Dec 10, 3:10pm

Tue Dec 10, 3:01pm

Tue Dec 10, 2:10pm

Tue Dec 10, 2:01pm

Tue Dec 10, 1:10pm

Tue Dec 10, 1:00pm

Tue Dec 10, 12:10pm

Tue Dec 10, 12:00pm

Tue Dec 10, 11:10am

Tue Dec 10, 11:00am

Tue Dec 10, 10:10am

Tue Dec 10, 10:00am

Tue Dec 10, 9:10am

Tue Dec 10, 9:01am

Tue Dec 10, 8:10am

Tue Dec 10, 8:00am

Tue Dec 10, 7:10am

Tue Dec 10, 7:00am

Tue Dec 10, 6:10am

Tue Dec 10, 6:00am

Tue Dec 10, 5:10am

Tue Dec 10, 5:00am

Tue Dec 10, 4:10am

Tue Dec 10, 4:00am

Tue Dec 10, 3:10am

Tue Dec 10, 3:00am

Tue Dec 10, 2:10am

Tue Dec 10, 2:01am

Tue Dec 10, 1:10am

Tue Dec 10, 1:00am

Tue Dec 10, 12:10am

Tue Dec 10, 12:01am

Mon Dec 9, 11:10pm

Mon Dec 9, 11:01pm

Mon Dec 9, 10:10pm

Mon Dec 9, 10:00pm

Mon Dec 9, 9:10pm

Mon Dec 9, 9:01pm

Mon Dec 9, 8:10pm

Mon Dec 9, 8:01pm

Mon Dec 9, 7:10pm

Mon Dec 9, 7:00pm

Mon Dec 9, 6:10pm

Mon Dec 9, 6:00pm

Meta data:

ID: 783ce908-a3f7-4bd9-805b-1735b8d8cdda
Link: https://api.weather.gov/products/783ce908-a3f7-4bd9-805b-1735b8d8cdda